[[{"header":{"parameterUnit":"m.s-1","parameterCategory":1,"la1":30.2991,"la2":30.254,"lo1":-89.0895,"lo2":-89.0444,"dy":0.0017,"dx":0.0017,"nx":28,"ny":28,"refTime":"2023-08-23T21:00:00:Z","depth":0,"parameterNumber":2,"parameterNumberName":"U-component_of_WINDS"},"data":[0,0,0,0,0,0,0,0,0,0,0,0,0,0,0,0,0,0,0,0,0,0,0,0,0,0,0,0,0,0,0,0,0,0,0,0,0,0,0,0,0,0,0,0,0,0,0,0,0,0,0,0,0,0,0,0,0,0,-1.7241,-1.7241,0,-1.7268,-1.7268,-1.7269,-1.7241,-1.724,-1.7239,-1.7238,-1.7268,-1.7269,-1.7271,0,0,0,0,0,0,0,0,0,0,0,0,0,-1.7167,-1.7168,-1.7241,-1.7241,-1.7241,-1.7268,-1.7268,-1.7269,-1.7241,-1.724,-1.7239,-1.7237,-1.7267,-1.7269,-1.7271,0,0,0,0,0,0,0,0,0,0,0,0,0,-1.7197,-1.7169,-1.7241,-1.7231,-1.723,-1.7268,-1.7268,-1.7269,-1.7241,-1.724,-1.7238,-1.7237,-1.7266,-1.7269,-1.7272,-1.7321,0,0,-1.728,-1.7281,0,0,0,0,0,0,0,0,-1.7195,-1.72,-1.7232,-1.7231,-1.7231,-1.7249,-1.7253,-1.7287,-1.7242,-1.7237,-1.7238,-1.7236,-1.7263,-1.7266,-1.7275,-1.7323,-1.7324,-1.728,-1.7282,-1.7283,-1.7284,0,0,0,0,0,0,0,-1.7193,-1.7198,-1.7252,-1.7232,-1.7232,-1.7226,-1.7228,-1.726,-1.7259,-1.7237,-1.7236,-1.7239,-1.7263,-1.7272,-1.7275,-1.7324,-1.728,-1.7283,-1.7284,-1.7285,-1.7416,-1.7418,0,0,0,0,0,0,-1.7192,-1.7197,-1.7251,-1.7252,-1.7209,-1.7228,-1.7231,-1.7245,-1.7259,-1.7259,-1.724,-1.7238,-1.7268,-1.7272,-1.7276,-1.7336,-1.7283,-1.7286,-1.7287,-1.7414,-1.7416,-1.7418,0,0,0,0,0,0,-1.719,-1.7197,-1.725,-1.7224,-1.723,-1.7231,-1.7247,-1.7247,-1.7256,-1.7261,-1.7261,-1.725,-1.7267,-1.7272,-1.731,-1.7336,-1.7287,-1.7289,-1.7412,-1.7415,-1.7417,-1.7455,0,0,0,0,0,0,-1.7188,-1.7197,-1.7215,-1.7225,-1.7232,-1.7283,-1.7249,-1.7248,-1.7261,-1.7257,-1.727,-1.7271,-1.7266,-1.7307,-1.7313,-1.7339,-1.7291,-1.741,-1.7413,-1.7416,-1.7451,-1.7459,-1.7465,0,0,0,0,0,-1.7186,-1.7224,-1.7216,-1.7222,-1.7254,-1.7284,-1.7288,-1.7282,-1.7263,-1.7282,-1.7285,-1.727,-1.7333,-1.7311,-1.7318,-1.7345,-1.7408,-1.7412,-1.7416,-1.7448,-1.7457,-1.7465,0,0,0,0,0,0,-1.7218,-1.7225,-1.7216,-1.7259,-1.7271,-1.7279,-1.7303,-1.7291,-1.731,-1.7306,-1.7298,-1.7301,-1.7342,-1.7347,-1.7323,-1.7395,-1.7367,-1.7373,-1.7389,-1.7398,-1.7404,-1.7402,-1.7294,0,0,0,0,0,-1.723,-1.7253,-1.7258,-1.7296,-1.7302,-1.7302,-1.7314,-1.7309,-1.7321,-1.7326,-1.7332,-1.7346,-1.7368,-1.7383,-1.7404,-1.7452,-1.7455,-1.7475,-1.7482,-1.7487,-1.7492,-1.7519,-1.7528,-1.7432,-1.7432,-1.7432,0,0,-1.7255,-1.7262,-1.7277,-1.7302,-1.7311,-1.7336,-1.7306,-1.7333,-1.7352,-1.7331,-1.7367,-1.7372,-1.7386,-1.743,-1.7449,-1.7436,-1.752,-1.7492,-1.7497,-1.7499,-1.7524,-1.7533,-1.7542,-1.7435,-1.7434,-1.7434,0,0,-1.7313,-1.732,-1.7352,-1.7362,-1.7376,-1.7375,-1.7383,-1.7393,-1.7396,-1.7432,-1.7417,-1.744,-1.7479,-1.749,-1.7501,-1.7565,-1.7552,-1.7572,-1.7607,-1.7633,-1.7641,-1.7648,-1.7671,-1.768,-1.7577,-1.7577,-1.7577,0,-1.7342,-1.7378,-1.737,-1.7399,-1.7411,-1.7393,-1.7426,-1.7436,-1.7456,-1.7466,-1.745,-1.7499,-1.7508,-1.7554,-1.757,-1.7579,-1.7589,-1.757,-1.764,-1.7647,-1.7653,-1.7676,-1.7685,-1.7579,-1.7579,-1.7579,-1.7579,0,-1.7414,-1.7439,-1.7464,-1.7483,-1.7498,-1.7529,-1.7527,-1.7543,-1.7537,-1.7538,-1.7576,-1.7586,-1.7609,-1.762,-1.7614,-1.7666,-1.7657,-1.7641,-1.7614,-1.7665,-1.7686,-1.7694,-1.7583,-1.7582,-1.7581,-1.7581,0,0,-1.7492,-1.7508,-1.7517,-1.7526,-1.7541,-1.756,-1.7591,-1.7613,-1.7628,-1.7643,-1.7669,-1.7703,-1.7689,-1.7701,-1.7696,-1.7719,-1.7771,-1.7701,-1.7701,-1.7714,-1.783,-1.7842,-1.7852,-1.7763,-1.7764,-1.7766,-1.7829,0,-1.7551,-1.7603,-1.7598,-1.7648,-1.7672,-1.7656,-1.7682,-1.7695,-1.7698,-1.7719,-1.7722,-1.7747,-1.7725,-1.7733,-1.7755,-1.776,-1.7794,-1.7755,-1.7788,-1.7789,-1.7785,-1.7863,-1.7875,-1.7935,-1.7837,-1.7838,-1.7839,0,-1.7626,-1.7644,-1.7696,-1.7708,-1.7718,-1.7742,-1.7762,-1.7783,-1.7797,-1.7798,-1.7812,-1.7804,-1.7836,-1.7808,-1.7852,-1.7826,-1.7839,-1.7844,-1.7846,-1.7849,-1.7817,-1.7868,-1.7953,-1.7963,-1.7852,-1.7851,-1.785,0,-1.7678,-1.7715,-1.7751,-1.776,-1.7774,-1.7792,-1.7799,-1.7811,-1.7826,-1.7844,-1.7854,-1.7876,-1.7888,-1.7906,-1.7905,-1.7884,-1.7951,-1.7922,-1.7953,-1.7953,-1.7967,-1.7966,-1.8056,-1.7975,-1.7975,-1.7975,-1.7975,0,-1.7745,-1.7778,-1.7775,-1.7798,-1.7835,-1.7829,-1.7866,-1.7871,-1.7882,-1.7906,-1.7894,-1.7917,-1.7913,-1.7937,-1.7936,-1.7974,-1.7979,-1.7981,-1.7981,-1.7982,-1.7982,-1.7991,-1.7987,-1.7977,-1.7977,-1.7977,-1.7976,0,-1.7809,-1.7809,-1.7847,-1.7858,-1.7862,-1.7889,-1.7898,-1.792,-1.7922,-1.7953,-1.796,-1.7963,-1.799,-1.799,-1.8021,-1.8021,-1.8067,-1.8062,-1.8062,-1.8061,-1.8092,-1.809,-1.8191,-1.8204,-1.8115,-1.8116,-1.8116,0,-1.7851,-1.7876,-1.789,-1.7905,-1.7913,-1.7937,-1.7952,-1.7948,-1.7963,-1.7982,-1.8002,-1.8028,-1.8048,-1.8093,-1.8099,-1.8123,-1.8118,-1.8152,-1.8121,-1.8123,-1.8119,-1.8118,-1.8121,-1.8158,-1.8159,-1.816,-1.816,0,-1.7927,-1.7926,-1.7947,-1.7968,-1.7986,-1.8003,-1.8018,-1.8031,-1.8029,-1.8048,-1.8075,-1.8091,-1.8123,-1.8149,-1.8173,-1.8181,-1.8171,-1.817,-1.8178,-1.818,-1.818,-1.8181,-1.8079,-1.8168,-1.8167,-1.8166,-1.8166,-1.8166,-1.7982,-1.8004,-1.8017,-1.8041,-1.8052,-1.8067,-1.8089,-1.8094,-1.8116,-1.8141,-1.8138,-1.8169,-1.8184,-1.8214,-1.8225,-1.825,-1.8238,-1.825,-1.8253,-1.8256,-1.826,-1.8176,-1.8254,-1.8254,-1.8253,-1.8253,-1.8253,0,-1.8057,-1.8065,-1.8087,-1.8109,-1.8129,-1.8117,-1.8134,-1.8152,-1.8179,-1.8193,-1.8214,-1.8246,-1.8272,-1.828,-1.8305,-1.8324,-1.832,-1.8331,-1.8329,-1.8332,-1.8269,-1.8259,-1.8333,-1.8333,-1.8333,-1.8333,-1.8333,-1.8333,-1.8098,-1.8135,-1.8136,-1.8178,-1.8186,-1.8216,-1.8227,-1.8241,-1.8253,-1.8289,-1.831,-1.8315,-1.8328,-1.8354,-1.8378,-1.838,-1.839,-1.8403,-1.8403,-1.8344,-1.8336,-1.8328,-1.8319,-1.8405,-1.8405,-1.8464,-1.8465,-1.8465]},{"header":{"parameterUnit":"m.s-1","parameterCategory":1,"la1":30.2991,"la2":30.254,"lo1":-89.0895,"lo2":-89.0444,"dy":0.0017,"dx":0.0017,"nx":28,"ny":28,"refTime":"2023-08-23T21:00:00:Z","depth":0,"parameterNumber":3,"parameterNumberName":"V-component_of_WINDS"},"data":[0,0,0,0,0,0,0,0,0,0,0,0,0,0,0,0,0,0,0,0,0,0,0,0,0,0,0,0,0,0,0,0,0,0,0,0,0,0,0,0,0,0,0,0,0,0,0,0,0,0,0,0,0,0,0,0,0,0,1.2661,1.2662,0,1.2704,1.2704,1.2704,1.2737,1.2738,1.2738,1.2738,1.278,1.2781,1.2782,0,0,0,0,0,0,0,0,0,0,0,0,0,1.2607,1.2608,1.2661,1.2662,1.2662,1.2703,1.2704,1.2705,1.2737,1.2738,1.2738,1.2738,1.278,1.2781,1.2782,0,0,0,0,0,0,0,0,0,0,0,0,0,1.2638,1.2608,1.2661,1.2683,1.2686,1.2703,1.2704,1.2705,1.2737,1.2738,1.2738,1.2738,1.2779,1.2781,1.2782,1.278,0,0,1.2786,1.2786,0,0,0,0,0,0,0,0,1.2636,1.264,1.268,1.2682,1.2685,1.2716,1.27,1.273,1.2737,1.2718,1.2738,1.2739,1.2758,1.2761,1.2768,1.2782,1.2784,1.2786,1.2786,1.2787,1.2787,0,0,0,0,0,0,0,1.2634,1.2638,1.2678,1.268,1.2683,1.2691,1.2696,1.2706,1.2735,1.2719,1.2722,1.2726,1.276,1.2767,1.2769,1.2784,1.2786,1.2787,1.2787,1.2788,1.2799,1.2798,0,0,0,0,0,0,1.2629,1.2636,1.2677,1.2679,1.2661,1.2691,1.2697,1.2705,1.2735,1.274,1.2726,1.2728,1.2764,1.2768,1.2771,1.277,1.2787,1.2788,1.2789,1.2799,1.2799,1.2798,0,0,0,0,0,0,1.2627,1.2632,1.2675,1.2658,1.2664,1.2692,1.2701,1.2706,1.2713,1.274,1.2745,1.2728,1.2765,1.2769,1.2778,1.2772,1.2789,1.279,1.28,1.2799,1.2798,1.277,0,0,0,0,0,0,1.2626,1.2631,1.2631,1.2658,1.2665,1.2681,1.2701,1.2706,1.2715,1.2718,1.2743,1.2748,1.2766,1.2775,1.2779,1.2774,1.2791,1.28,1.2799,1.2799,1.2771,1.2768,1.2765,0,0,0,0,0,1.2624,1.2621,1.2631,1.2636,1.2666,1.2681,1.2685,1.2706,1.2715,1.2714,1.2732,1.2747,1.2772,1.2776,1.278,1.2776,1.2801,1.28,1.2799,1.2773,1.2769,1.2766,0,0,0,0,0,0,1.2592,1.2625,1.2636,1.2642,1.2659,1.2686,1.2687,1.2701,1.2715,1.2717,1.2742,1.2747,1.2753,1.2765,1.2769,1.2776,1.2789,1.2788,1.2767,1.2764,1.2761,1.2758,1.2792,0,0,0,0,0,1.2586,1.2596,1.2624,1.2627,1.2634,1.2659,1.2666,1.2681,1.2699,1.2706,1.2723,1.2739,1.2751,1.2758,1.2771,1.2773,1.2779,1.2772,1.277,1.2767,1.2766,1.2769,1.2766,1.2795,1.2795,1.2795,0,0,1.2573,1.2592,1.2597,1.2621,1.2635,1.2644,1.2664,1.2673,1.268,1.2707,1.2716,1.273,1.2749,1.2755,1.2758,1.2765,1.276,1.2766,1.2764,1.2764,1.2767,1.2765,1.2762,1.2794,1.2794,1.2794,0,0,1.2554,1.257,1.2574,1.2588,1.261,1.2626,1.2627,1.2653,1.2663,1.2673,1.2693,1.2701,1.2721,1.2734,1.2743,1.273,1.2744,1.2733,1.2718,1.272,1.2717,1.2715,1.271,1.2708,1.2732,1.2732,1.2732,0,1.2535,1.2551,1.2574,1.2582,1.2592,1.2617,1.2621,1.2633,1.2657,1.2663,1.2671,1.2696,1.2711,1.272,1.2717,1.2724,1.2725,1.273,1.2716,1.2714,1.2713,1.2708,1.2706,1.2731,1.2731,1.2731,1.2731,0,1.2526,1.2537,1.2537,1.2561,1.257,1.2576,1.26,1.2607,1.2621,1.2637,1.2646,1.2665,1.2682,1.2685,1.2699,1.2696,1.27,1.2711,1.2725,1.2708,1.2704,1.2703,1.2728,1.2729,1.2729,1.273,0,0,1.2489,1.2525,1.2525,1.2536,1.2561,1.257,1.2576,1.2593,1.2599,1.2614,1.2621,1.2637,1.2648,1.2658,1.2674,1.2675,1.2663,1.2687,1.2688,1.2682,1.2661,1.2652,1.265,1.2673,1.2673,1.2673,1.2659,0,1.2474,1.2488,1.2509,1.2516,1.2526,1.255,1.2556,1.2572,1.2587,1.2597,1.2613,1.2624,1.2638,1.2644,1.2647,1.2664,1.2659,1.2665,1.2679,1.2679,1.2673,1.2648,1.2638,1.2624,1.2658,1.2658,1.2658,0,1.2458,1.2473,1.2481,1.2507,1.2511,1.2516,1.2533,1.2543,1.2562,1.2572,1.2584,1.2601,1.2609,1.2621,1.2633,1.2636,1.2643,1.2652,1.2652,1.2654,1.2667,1.2648,1.2621,1.2619,1.2656,1.2656,1.2656,0,1.243,1.2452,1.246,1.2468,1.2498,1.2501,1.2513,1.2532,1.2541,1.2556,1.2562,1.2577,1.2585,1.2596,1.2617,1.2624,1.2626,1.264,1.2634,1.2634,1.2633,1.2633,1.2606,1.2638,1.2638,1.2638,1.2638,0,1.2411,1.2415,1.2447,1.2452,1.2457,1.2481,1.2485,1.25,1.2517,1.2525,1.2546,1.2553,1.2579,1.2589,1.2605,1.2612,1.2615,1.2624,1.2628,1.2622,1.2621,1.2626,1.2628,1.2638,1.2638,1.2638,1.2638,0,1.2379,1.2402,1.2412,1.2439,1.2446,1.2448,1.2471,1.2477,1.2493,1.2502,1.2506,1.2531,1.2543,1.2565,1.2584,1.2594,1.2598,1.2605,1.2592,1.2594,1.2587,1.2588,1.2563,1.2561,1.2594,1.2594,1.2593,0,1.2366,1.237,1.2397,1.2404,1.2416,1.2427,1.2436,1.246,1.2468,1.249,1.2493,1.2507,1.252,1.2538,1.2558,1.2572,1.258,1.257,1.2582,1.2576,1.2579,1.2579,1.2579,1.2567,1.2567,1.2566,1.2566,0,1.2339,1.235,1.2363,1.2379,1.2389,1.2403,1.2418,1.2422,1.245,1.2458,1.2471,1.2481,1.25,1.2514,1.2531,1.2544,1.2559,1.2562,1.2562,1.2555,1.2547,1.2551,1.2584,1.2562,1.2563,1.2563,1.2563,1.2563,1.2316,1.2321,1.2341,1.2354,1.2368,1.2382,1.2388,1.2405,1.2417,1.2435,1.2448,1.246,1.2479,1.2503,1.2515,1.2524,1.2532,1.2531,1.2531,1.253,1.2527,1.2546,1.2528,1.2528,1.2528,1.2528,1.2528,0,1.2291,1.2305,1.2317,1.2337,1.2348,1.2362,1.2379,1.2387,1.2398,1.2414,1.2426,1.2441,1.2455,1.2475,1.2491,1.2494,1.2502,1.2497,1.2497,1.25,1.252,1.2519,1.2491,1.2491,1.2491,1.2491,1.2491,1.2491,1.2278,1.2286,1.23,1.2315,1.2329,1.2342,1.235,1.2363,1.2376,1.2392,1.2403,1.2417,1.2435,1.2452,1.2465,1.2471,1.2475,1.2468,1.2476,1.2495,1.2498,1.2502,1.2501,1.2469,1.2469,1.2455,1.2455,1.2454]}]]